EW0349 Weather Reports


Display with metric or nautical units.
time (UTC)temp
F
wind
direction
speed
MPH
gust
MPH
rain 1hr
in
rain 24hr
in
rain mn
in
humidity
%
barometer
mb
20260903141510 52 286 0.0 1.0 0.09 0.52 0.11 100 1009.9
20260903140002 52 281 0.0 1.0 0.10 0.52 0.11 100 1009.9
20260903134601 52 281 0.0 3.0 0.10 0.51 0.10 100 1010.1
20260903133053 53 287 0.0 3.0 0.05 0.46 0.05 100 1010.0
20260903131604 53 273 0.0 3.0 0.02 0.43 0.02 100 1010.0
20260903130048 53 237 1.0 7.0 0.01 0.42 0.01 100 1009.7
20260903124541 53 194 0.0 5.0 0.00 0.41 0.00 100 1009.6
20260903123042 53 196 2.0 7.0 0.00 0.41 0.00 100 1009.7
20260903121550 53 115 0.0 7.0 0.00 0.41 0.00 100 1009.7
20260903120026 53 200 2.0 5.0 0.00 0.41 0.00 100 1009.8
20260903114522 52 177 1.0 7.0 0.00 0.41 0.00 100 1009.8
20260903113018 53 205 0.0 7.0 0.00 0.41 0.00 100 1009.8
20260903111513 53 172 0.0 5.0 0.00 0.41 0.00 100 1009.9
20260903110008 53 175 0.0 4.0 0.00 0.41 0.00 100 1009.9
20260903104505 53 167 0.0 4.0 0.00 0.41 0.00 100 1010.0
20260903103102 53 266 1.0 7.0 0.00 0.41 0.00 100 1010.1
20260903101556 53 255 2.0 7.0 0.00 0.41 0.00 100 1010.2
20260903100052 53 222 1.0 7.0 0.00 0.41 0.00 100 1010.0
20260903094553 53 165 2.0 7.0 0.00 0.41 0.00 100 1010.0
20260903093052 53 225 2.0 7.0 0.00 0.41 0.00 100 1010.0
20260903091550 53 204 3.0 9.0 0.00 0.41 0.00 100 1010.1
20260903090033 53 217 0.0 6.0 0.00 0.41 0.00 100 1010.3
20260903084529 53 144 1.0 5.0 0.00 0.41 0.00 100 1010.3
20260903083025 53 313 0.0 3.0 0.00 0.41 0.00 100 1010.3
20260903081522 53 221 0.0 6.0 0.00 0.41 0.00 100 1010.5
20260903080015 53 208 1.0 7.0 0.00 0.41 0.00 100 1010.4
20260903074511 53 178 1.0 6.0 0.00 0.41 0.00 100 1010.4
20260903073017 53 246 1.0 7.0 0.00 0.41 0.00 100 1010.2
20260903071503 53 169 1.0 7.0 0.00 0.41 0.00 100 1010.2
20260903070059 53 163 1.0 7.0 0.00 0.41 0.41 100 1010.1
20260903064555 53 178 1.0 7.0 0.00 0.41 0.41 100 1010.1
20260903063051 53 235 1.0 3.0 0.00 0.41 0.41 100 1010.2
20260903061549 54 201 1.0 3.0 0.00 0.41 0.41 100 1010.3
20260903060053 54 217 0.0 5.0 0.00 0.41 0.41 100 1010.3
20260903054535 54 158 0.0 4.0 0.00 0.41 0.41 100 1010.2
20260903053035 54 168 2.0 7.0 0.00 0.41 0.41 100 1010.2
20260903051526 54 207 0.0 2.0 0.00 0.41 0.41 100 1010.2
20260903050022 54 211 1.0 6.0 0.00 0.41 0.41 100 1010.1
20260903044519 54 161 1.0 5.0 0.00 0.41 0.41 100 1010.0
20260903043019 54 256 1.0 5.0 0.00 0.41 0.41 100 1009.9
20260903041511 54 193 0.0 5.0 0.00 0.41 0.41 100 1009.8
20260903040010 54 102 1.0 6.0 0.00 0.41 0.41 100 1009.6
20260903034600 54 169 0.0 1.0 0.00 0.41 0.41 100 1009.6
20260903033056 54 162 0.0 1.0 0.00 0.41 0.41 100 1009.5
20260903031551 54 162 0.0 1.0 0.00 0.41 0.41 100 1009.4
20260903030051 55 162 0.0 1.0 0.00 0.41 0.41 100 1009.0
20260903024541 55 168 0.0 3.0 0.00 0.41 0.41 100 1008.6
20260903023037 55 223 0.0 5.0 0.00 0.41 0.41 100 1008.7
20260903021542 55 196 0.0 4.0 0.01 0.41 0.41 100 1008.7
20260903020034 56 194 1.0 4.0 0.01 0.41 0.41 100 1008.5
20260903014524 55 197 0.0 5.0 0.01 0.41 0.41 100 1008.3
20260903013020 55 172 0.0 4.0 0.02 0.41 0.41 100 1008.4
20260903011515 56 197 1.0 5.0 0.01 0.40 0.40 100 1008.2
20260903010011 56 256 0.0 7.0 0.01 0.40 0.40 100 1008.2
20260903004510 56 183 1.0 7.0 0.01 0.40 0.40 100 1007.9
20260903003002 57 167 0.0 4.0 0.00 0.39 0.39 100 1008.1
20260903001559 57 201 1.0 5.0 0.00 0.39 0.39 100 1007.9
20260903000059 56 176 0.0 3.0 0.09 0.39 0.39 100 1007.7
20260902234557 56 231 0.0 3.0 0.12 0.39 0.39 100 1007.6
20260902233052 56 263 0.0 6.0 0.14 0.39 0.39 100 1007.6
20260902231540 56 205 1.0 10.0 0.15 0.39 0.39 100 1007.3
20260902230043 57 277 3.0 8.0 0.06 0.30 0.30 100 1006.9
20260902224532 57 174 2.0 16.0 0.03 0.27 0.27 100 1006.9
20260902223028 57 161 2.0 9.0 0.01 0.25 0.25 100 1006.8
20260902221523 57 202 2.0 8.0 0.01 0.24 0.24 100 1006.7
20260902220025 57 203 2.0 7.0 0.01 0.24 0.24 100 1006.7
20260902214532 57 223 3.0 8.0 0.01 0.24 0.24 100 1006.8
20260902213009 57 201 2.0 8.0 0.01 0.24 0.24 100 1006.7
20260902211506 57 249 2.0 6.0 0.01 0.23 0.23 100 1006.6
20260902204557 57 200 3.0 13.0 0.01 0.23 0.23 100 1006.4
20260902203052 56 192 2.0 7.0 0.01 0.23 0.23 100 1006.3
20260902201549 56 108 1.0 6.0 0.01 0.22 0.22 100 1006.1
20260902200044 56 204 0.0 5.0 0.02 0.22 0.22 100 1006.0
20260902194539 56 192 0.0 9.0 0.03 0.22 0.22 100 1006.0
20260902193035 56 216 2.0 9.0 0.05 0.22 0.22 100 1006.0
20260902191530 56 177 2.0 6.0 0.06 0.21 0.21 100 1005.9
20260902190026 56 215 0.0 8.0 0.11 0.20 0.20 100 1005.8
20260902184522 56 207 0.0 5.0 0.11 0.19 0.19 100 1006.0
20260902183017 56 207 0.0 4.0 0.09 0.17 0.17 100 1006.3
20260902181512 56 232 1.0 4.0 0.08 0.15 0.15 100 1006.5
20260902180010 56 355 0.0 6.0 0.04 0.09 0.09 100 1006.3
20260902174505 56 190 1.0 6.0 0.05 0.08 0.08 100 1006.5
20260902173133 56 252 0.0 4.0 0.07 0.08 0.08 100 1006.7
20260902171605 56 236 1.0 6.0 0.07 0.07 0.07 100 1006.9
20260902170057 56 202 1.0 9.0 0.05 0.05 0.05 11 1006.9
20260902164554 57 161 2.0 6.0 0.03 0.03 0.03 22 1006.8
20260902163046 58 175 1.0 3.0 0.01 0.01 0.01 32 1006.6
20260902161546 59 198 0.0 4.0 0.00 0.00 0.00 36 1006.4
20260902160059 59 179 0.0 2.0 0.00 0.00 0.00 39 1006.3
20260902154546 59 178 0.0 2.0 0.00 0.00 0.00 41 1006.4
20260902153043 59 196 1.0 4.0 0.00 0.00 0.00 44 1006.7
20260902151540 59 210 0.0 4.0 0.00 0.00 0.00 44 1006.8
20260902150036 58 198 1.0 4.0 0.00 0.00 0.00 38 1006.9
20260902144534 57 170 0.0 1.0 0.00 0.00 0.00 27 1007.0
20260902143038 57 170 0.0 0.0 0.00 0.00 0.00 25 1007.1